QPF
0.00 0.00 0.00 0.00 0.00 0.00 0.00 0.00 0.00 0.00 0.00 0.00 0.00 0.00 0.00 0.01 0.00 0.00 0.00 0.01 0.02 0.01 0.01 0.01 0.02 0.03 0.04 0.03 0.03 0.03 0.04 0.05 0.07 0.09 0.11 0.12 0.12 0.14
0.00 0.00 0.00 0.00 0.00 0.00 0.00 0.00 0.00 0.00 0.00 0.00 0.00 0.00 0.00 0.00 0.00 0.00 0.01 0.01 0.01 0.01 0.01 0.01 0.01 0.01 0.02 0.03 0.03 0.03 0.03 0.03 0.04 0.05 0.06 0.07 0.08 0.09
0.00 0.00 0.00 0.00 0.00 0.00 0.00 0.00 0.00 0.00 0.00 0.00 0.00 0.00 0.00 0.00 0.00 0.00 0.00 0.00 0.01 0.01 0.01 0.01 0.01 0.01 0.01 0.01 0.02 0.03 0.03 0.02 0.02 0.02 0.04 0.05 0.05 0.05
0.00 0.00 0.00 0.00 0.00 0.00 0.00 0.00 0.00 0.00 0.00 0.00 0.00 0.00 0.00 0.00 0.00 0.00 0.00 0.00 0.00 0.00 0.00 0.00 0.01 0.01 0.02 0.01 0.01 0.01 0.02 0.02 0.02 0.01 0.02 0.03 0.04 0.06
0.00 0.00 0.00 0.00 0.00 0.00 0.00 0.00 0.00 0.00 0.00 0.00 0.00 0.00 0.00 0.00 0.00 0.00 0.00 0.00 0.00 0.00 0.00 0.00 0.00 0.01 0.01 0.01 0.00 0.00 0.00 0.01 0.02 0.02 0.01 0.01 0.02 0.03
0.00 0.00 0.00 0.00 0.00 0.00 0.00 0.00 0.00 0.00 0.00 0.00 0.00 0.00 0.00 0.00 0.00 0.00 0.00 0.00 0.00 0.00 0.00 0.00 0.00 0.00 0.00 0.00 0.01 0.00 0.00 0.00 0.00 0.01 0.01 0.01 0.01 0.01
0.00 0.00 0.00 0.00 0.00 0.00 0.00 0.00 0.00 0.00 0.00 0.00 0.00 0.00 0.00 0.00 0.00 0.00 0.00 0.00 0.00 0.00 0.00 0.00 0.00 0.00 0.00 0.00 0.00 0.00 0.00 0.00 0.00 0.00 0.00 0.01 0.01 0.01
0.00 0.00 0.00 0.00 0.00 0.00 0.00 0.00 0.00 0.00 0.00 0.00 0.00 0.00 0.00 0.00 0.00 0.00 0.00 0.00 0.00 0.00 0.00 0.00 0.00 0.00 0.00 0.00 0.00 0.00 0.00 0.00 0.00 0.00 0.00 0.00 0.00 0.01
0.00 0.00 0.00 0.00 0.00 0.00 0.00 0.00 0.00 0.00 0.00 0.00 0.00 0.00 0.00 0.00 0.00 0.00 0.00 0.00 0.00 0.00 0.00 0.00 0.00 0.00 0.00 0.00 0.00 0.00 0.00 0.00 0.00 0.00 0.00 0.00 0.00 0.00
0.00 0.00 0.00 0.00 0.00 0.00 0.00 0.00 0.00 0.00 0.00 0.00 0.00 0.00 0.00 0.00 0.00 0.00 0.00 0.00 0.00 0.00 0.00 0.00 0.00 0.00 0.00 0.00 0.00 0.00 0.00 0.00 0.00 0.00 0.00 0.00 0.00 0.00
0.00 0.00 0.00 0.00 0.00 0.00 0.00 0.00 0.00 0.00 0.00 0.00 0.00 0.00 0.00 0.00 0.00 0.00 0.00 0.00 0.00 0.00 0.00 0.00 0.00 0.00 0.00 0.00 0.00 0.00 0.00 0.00 0.00 0.00 0.00 0.00 0.01 0.01
0.00 0.00 0.00 0.00 0.00 0.00 0.00 0.00 0.00 0.00 0.00 0.00 0.00 0.00 0.00 0.00 0.00 0.00 0.00 0.01 0.00 0.00 0.00 0.00 0.00 0.00 0.00 0.00 0.00 0.00 0.00 0.00 0.00 0.00 0.00 0.00 0.01 0.01
0.00 0.00 0.00 0.00 0.00 0.00 0.00 0.00 0.00 0.00 0.00 0.00 0.00 0.00 0.00 0.00 0.00 0.00 0.01 0.01 0.01 0.01 0.00 0.01 0.01 0.01 0.01 0.00 0.00 0.00 0.00 0.00 0.00 0.00 0.00 0.00 0.01 0.01
0.00 0.00 0.00 0.00 0.00 0.00 0.00 0.00 0.00 0.00 0.00 0.00 0.00 0.00 0.00 0.00 0.00 0.00 0.01 0.01 0.01 0.01 0.01 0.02 0.01 0.01 0.01 0.01 0.00 0.00 0.00 0.00 0.00 0.00 0.00 0.00 0.01 0.01
0.00 0.00 0.00 0.00 0.00 0.00 0.00 0.00 0.00 0.00 0.00 0.00 0.00 0.00 0.00 0.00 0.00 0.00 0.00 0.01 0.01 0.01 0.01 0.02 0.02 0.02 0.02 0.01 0.01 0.00 0.00 0.00 0.01 0.00 0.00 0.01 0.02 0.02
0.01 0.01 0.01 0.01 0.01 0.00 0.00 0.00 0.00 0.00 0.01 0.00 0.00 0.00 0.00 0.01 0.01 0.01 0.01 0.01 0.01 0.01 0.01 0.02 0.03 0.04 0.03 0.02 0.01 0.01 0.01 0.00 0.00 0.00 0.00 0.01 0.02 0.02
0.01 0.00 0.00 0.00 0.00 0.00 0.00 0.00 0.01 0.01 0.01 0.01 0.00 0.00 0.00 0.00 0.01 0.01 0.02 0.02 0.02 0.01 0.01 0.02 0.02 0.03 0.03 0.04 0.02 0.01 0.00 0.00 0.01 0.01 0.01 0.01 0.01 0.01
0.00 0.00 0.00 0.00 0.00 0.00 0.00 0.00 0.00 0.00 0.01 0.01 0.01 0.01 0.01 0.01 0.01 0.02 0.03 0.03 0.03 0.02 0.02 0.02 0.02 0.02 0.02 0.02 0.02 0.02 0.01 0.01 0.01 0.01 0.01 0.01 0.00 0.00
0.00 0.00 0.00 0.00 0.00 0.00 0.00 0.00 0.00 0.00 0.01 0.01 0.02 0.02 0.03 0.02 0.02 0.03 0.04 0.04 0.03 0.03 0.02 0.03 0.03 0.04 0.03 0.02 0.02 0.02 0.02 0.01 0.01 0.01 0.01 0.02 0.01 0.01
0.00 0.00 0.00 0.00 0.00 0.00 0.00 0.01 0.01 0.01 0.01 0.01 0.02 0.02 0.02 0.03 0.03 0.03 0.03 0.04 0.03 0.03 0.03 0.03 0.04 0.04 0.04 0.03 0.02 0.02 0.02 0.02 0.02 0.01 0.01 0.02 0.01 0.01
0.00 0.00 0.01 0.01 0.01 0.01 0.01 0.01 0.01 0.01 0.01 0.02 0.01 0.02 0.02 0.02 0.03 0.03 0.03 0.04 0.04 0.04 0.03 0.02 0.03 0.04 0.05 0.05 0.03 0.02 0.02 0.02 0.02 0.02 0.03 0.02 0.01 0.01
0.01 0.01 0.01 0.01 0.01 0.01 0.01 0.01 0.01 0.01 0.01 0.01 0.01 0.01 0.02 0.02 0.02 0.03 0.04 0.04 0.04 0.04 0.03 0.03 0.04 0.05 0.05 0.04 0.03 0.02 0.02 0.02 0.02 0.02 0.02 0.02 0.02 0.01
0.01 0.01 0.01 0.01 0.01 0.01 0.01 0.01 0.02 0.02 0.01 0.01 0.01 0.01 0.01 0.02 0.02 0.02 0.03 0.03 0.03 0.03 0.03 0.03 0.03 0.04 0.04 0.04 0.03 0.02 0.02 0.02 0.03 0.03 0.02 0.02 0.02 0.02
MSLP
1019.89 1020.09 1020.33 1020.59 1020.83 1021.01 1021.11 1021.12 1021.04 1020.90 1020.70 1020.46 1020.22 1019.98 1019.76 1019.54 1019.34 1019.16 1018.99 1018.84 1018.72 1018.61 1018.53 1018.46 1018.39 1018.33 1018.27 1018.22 1018.17 1018.16 1018.19 1018.28 1018.43 1018.65 1018.91 1019.21 1019.51 1019.80
1019.90 1020.09 1020.32 1020.56 1020.79 1020.97 1021.08 1021.13 1021.10 1021.02 1020.89 1020.72 1020.53 1020.32 1020.09 1019.85 1019.59 1019.31 1019.04 1018.78 1018.55 1018.34 1018.18 1018.05 1017.96 1017.89 1017.83 1017.79 1017.77 1017.78 1017.82 1017.91 1018.06 1018.25 1018.49 1018.77 1019.04 1019.29
1019.87 1020.05 1020.26 1020.47 1020.67 1020.84 1020.96 1021.04 1021.07 1021.05 1021.00 1020.91 1020.79 1020.62 1020.41 1020.15 1019.85 1019.52 1019.17 1018.82 1018.49 1018.20 1017.96 1017.78 1017.64 1017.54 1017.48 1017.44 1017.43 1017.44 1017.48 1017.57 1017.70 1017.88 1018.10 1018.34 1018.58 1018.81
1019.83 1019.98 1020.16 1020.34 1020.51 1020.66 1020.78 1020.88 1020.94 1020.99 1021.01 1020.99 1020.94 1020.83 1020.66 1020.42 1020.11 1019.75 1019.35 1018.94 1018.55 1018.20 1017.90 1017.66 1017.47 1017.34 1017.25 1017.19 1017.15 1017.14 1017.17 1017.23 1017.34 1017.49 1017.68 1017.89 1018.11 1018.32
1019.76 1019.89 1020.03 1020.17 1020.30 1020.43 1020.54 1020.65 1020.74 1020.83 1020.91 1020.96 1020.97 1020.92 1020.79 1020.59 1020.30 1019.95 1019.54 1019.12 1018.70 1018.31 1017.97 1017.68 1017.45 1017.27 1017.12 1017.01 1016.93 1016.87 1016.85 1016.86 1016.93 1017.04 1017.20 1017.38 1017.59 1017.78
1019.64 1019.74 1019.85 1019.96 1020.05 1020.15 1020.25 1020.35 1020.46 1020.58 1020.69 1020.78 1020.84 1020.84 1020.77 1020.61 1020.38 1020.06 1019.68 1019.28 1018.86 1018.47 1018.11 1017.79 1017.51 1017.28 1017.07 1016.88 1016.72 1016.59 1016.49 1016.44 1016.44 1016.50 1016.62 1016.78 1016.97 1017.16
1019.43 1019.52 1019.60 1019.68 1019.75 1019.83 1019.91 1020.00 1020.10 1020.22 1020.35 1020.46 1020.55 1020.59 1020.56 1020.46 1020.27 1020.01 1019.69 1019.33 1018.96 1018.59 1018.23 1017.89 1017.58 1017.28 1017.00 1016.73 1016.48 1016.26 1016.07 1015.93 1015.87 1015.87 1015.93 1016.07 1016.23 1016.42
1019.11 1019.19 1019.26 1019.33 1019.38 1019.44 1019.51 1019.58 1019.67 1019.78 1019.90 1020.01 1020.10 1020.16 1020.16 1020.09 1019.96 1019.76 1019.51 1019.22 1018.90 1018.56 1018.22 1017.89 1017.55 1017.20 1016.86 1016.51 1016.17 1015.85 1015.57 1015.35 1015.21 1015.15 1015.16 1015.26 1015.41 1015.59
1018.67 1018.75 1018.82 1018.88 1018.93 1018.99 1019.04 1019.11 1019.18 1019.26 1019.35 1019.44 1019.52 1019.57 1019.58 1019.53 1019.44 1019.30 1019.11 1018.88 1018.62 1018.34 1018.03 1017.70 1017.35 1016.97 1016.58 1016.17 1015.75 1015.36 1015.00 1014.71 1014.50 1014.38 1014.35 1014.41 1014.53 1014.70
1018.11 1018.20 1018.28 1018.35 1018.41 1018.47 1018.53 1018.58 1018.63 1018.69 1018.74 1018.80 1018.84 1018.86 1018.85 1018.82 1018.74 1018.63 1018.49 1018.31 1018.10 1017.87 1017.60 1017.29 1016.95 1016.56 1016.14 1015.69 1015.24 1014.79 1014.39 1014.05 1013.78 1013.62 1013.55 1013.57 1013.66 1013.80
1017.48 1017.58 1017.66 1017.75 1017.83 1017.90 1017.96 1018.00 1018.04 1018.07 1018.09 1018.09 1018.09 1018.08 1018.04 1017.99 1017.91 1017.82 1017.70 1017.55 1017.39 1017.19 1016.95 1016.67 1016.35 1015.97 1015.56 1015.11 1014.64 1014.19 1013.77 1013.40 1013.11 1012.92 1012.81 1012.79 1012.84 1012.93
1016.83 1016.92 1017.02 1017.11 1017.20 1017.28 1017.34 1017.38 1017.40 1017.40 1017.39 1017.36 1017.32 1017.26 1017.19 1017.10 1017.01 1016.91 1016.79 1016.66 1016.52 1016.34 1016.14 1015.89 1015.59 1015.25 1014.86 1014.44 1014.00 1013.57 1013.16 1012.80 1012.51 1012.29 1012.16 1012.09 1012.09 1012.13
1016.17 1016.26 1016.35 1016.45 1016.54 1016.61 1016.67 1016.70 1016.71 1016.69 1016.65 1016.58 1016.50 1016.41 1016.30 1016.19 1016.08 1015.96 1015.83 1015.70 1015.56 1015.40 1015.21 1014.99 1014.73 1014.42 1014.08 1013.71 1013.32 1012.93 1012.57 1012.23 1011.96 1011.73 1011.57 1011.47 1011.41 1011.37
1015.54 1015.61 1015.69 1015.77 1015.84 1015.90 1015.94 1015.95 1015.94 1015.91 1015.84 1015.76 1015.66 1015.54 1015.41 1015.27 1015.14 1015.00 1014.86 1014.72 1014.57 1014.41 1014.24 1014.04 1013.81 1013.55 1013.26 1012.94 1012.61 1012.28 1011.96 1011.66 1011.40 1011.18 1010.99 1010.84 1010.72 1010.62
1014.91 1014.96 1015.01 1015.06 1015.10 1015.13 1015.14 1015.13 1015.10 1015.04 1014.96 1014.86 1014.75 1014.62 1014.49 1014.34 1014.19 1014.04 1013.89 1013.74 1013.59 1013.42 1013.26 1013.07 1012.86 1012.64 1012.39 1012.12 1011.85 1011.57 1011.29 1011.03 1010.78 1010.55 1010.34 1010.15 1009.97 1009.79
1014.28 1014.30 1014.32 1014.33 1014.33 1014.31 1014.28 1014.23 1014.16 1014.09 1014.00 1013.90 1013.78 1013.66 1013.53 1013.39 1013.25 1013.09 1012.94 1012.78 1012.62 1012.45 1012.28 1012.10 1011.90 1011.70 1011.48 1011.25 1011.01 1010.76 1010.51 1010.27 1010.02 1009.78 1009.54 1009.31 1009.08 1008.85
1013.60 1013.60 1013.59 1013.56 1013.51 1013.44 1013.35 1013.26 1013.16 1013.07 1012.97 1012.86 1012.76 1012.66 1012.54 1012.42 1012.29 1012.16 1012.00 1011.84 1011.67 1011.50 1011.32 1011.13 1010.93 1010.73 1010.52 1010.30 1010.07 1009.84 1009.59 1009.35 1009.09 1008.83 1008.56 1008.29 1008.02 1007.74
1012.89 1012.88 1012.84 1012.77 1012.67 1012.55 1012.41 1012.28 1012.14 1012.02 1011.91 1011.81 1011.72 1011.64 1011.55 1011.46 1011.35 1011.23 1011.09 1010.93 1010.76 1010.57 1010.38 1010.17 1009.96 1009.74 1009.52 1009.29 1009.05 1008.80 1008.55 1008.28 1008.00 1007.71 1007.41 1007.11 1006.81 1006.51
1012.16 1012.16 1012.11 1012.01 1011.87 1011.70 1011.52 1011.34 1011.17 1011.02 1010.90 1010.80 1010.72 1010.66 1010.59 1010.53 1010.44 1010.33 1010.21 1010.05 1009.87 1009.68 1009.47 1009.24 1009.01 1008.76 1008.52 1008.26 1007.99 1007.71 1007.42 1007.12 1006.81 1006.49 1006.16 1005.84 1005.52 1005.21
1011.47 1011.48 1011.43 1011.32 1011.15 1010.95 1010.73 1010.51 1010.31 1010.14 1010.00 1009.90 1009.82 1009.77 1009.72 1009.67 1009.60 1009.50 1009.38 1009.22 1009.04 1008.83 1008.59 1008.35 1008.09 1007.81 1007.53 1007.24 1006.93 1006.62 1006.29 1005.96 1005.61 1005.27 1004.92 1004.58 1004.26 1003.95
1010.89 1010.92 1010.87 1010.75 1010.56 1010.34 1010.09 1009.84 1009.62 1009.43 1009.28 1009.16 1009.09 1009.03 1008.98 1008.93 1008.86 1008.76 1008.62 1008.46 1008.26 1008.03 1007.78 1007.50 1007.22 1006.91 1006.60 1006.28 1005.95 1005.60 1005.24 1004.87 1004.50 1004.14 1003.77 1003.43 1003.11 1002.82
1010.46 1010.50 1010.45 1010.33 1010.13 1009.89 1009.63 1009.36 1009.12 1008.91 1008.75 1008.62 1008.53 1008.46 1008.40 1008.32 1008.22 1008.10 1007.95 1007.75 1007.52 1007.27 1006.99 1006.70 1006.39 1006.07 1005.74 1005.40 1005.04 1004.68 1004.30 1003.92 1003.53 1003.15 1002.79 1002.44 1002.13 1001.85
1010.21 1010.24 1010.19 1010.05 1009.85 1009.59 1009.32 1009.05 1008.80 1008.59 1008.41 1008.26 1008.15 1008.04 1007.95 1007.83 1007.69 1007.52 1007.32 1007.08 1006.81 1006.53 1006.22 1005.91 1005.59 1005.26 1004.92 1004.58 1004.22 1003.85 1003.47 1003.09 1002.70 1002.32 1001.96 1001.62 1001.32 1001.05
Thickness
5692 5690 5687 5685 5683 5681 5678 5674 5667 5662 5661 5666 5669 5673 5673 5673 5673 5672 5672 5672 5672 5671 5671 5671 5672 5672 5673 5673 5674 5675 5675 5676 5677 5678 5679 5680 5681 5682
5689 5686 5684 5681 5679 5677 5674 5671 5667 5661 5657 5660 5662 5666 5667 5668 5668 5667 5668 5668 5667 5667 5667 5667 5667 5668 5668 5668 5668 5669 5670 5670 5671 5672 5673 5674 5676 5677
5686 5683 5680 5678 5675 5673 5670 5667 5663 5659 5654 5655 5658 5660 5661 5661 5662 5662 5662 5662 5662 5662 5662 5662 5662 5662 5663 5663 5663 5663 5664 5664 5665 5666 5667 5668 5670 5672
5682 5680 5677 5675 5671 5669 5665 5663 5660 5657 5653 5650 5651 5653 5654 5655 5656 5656 5656 5656 5656 5656 5656 5656 5656 5656 5657 5657 5657 5657 5657 5658 5659 5660 5661 5662 5664 5665
5679 5676 5674 5671 5667 5664 5662 5659 5656 5655 5650 5647 5645 5646 5647 5649 5648 5649 5649 5649 5649 5650 5650 5650 5650 5650 5650 5650 5651 5651 5651 5652 5652 5653 5654 5656 5657 5659
5677 5675 5672 5669 5665 5662 5659 5656 5653 5649 5646 5642 5640 5639 5639 5641 5640 5638 5638 5639 5640 5642 5642 5642 5643 5643 5643 5643 5644 5644 5645 5645 5646 5647 5648 5649 5651 5652
5674 5672 5670 5668 5665 5661 5658 5653 5649 5645 5641 5638 5635 5633 5632 5632 5631 5631 5630 5630 5631 5633 5634 5634 5635 5635 5636 5636 5637 5638 5638 5639 5640 5641 5641 5642 5643 5645
5671 5669 5667 5665 5663 5660 5657 5653 5649 5643 5638 5634 5631 5628 5628 5627 5626 5625 5623 5621 5621 5625 5624 5625 5626 5626 5628 5629 5630 5631 5632 5633 5633 5634 5635 5636 5637 5638
5667 5665 5664 5663 5660 5656 5653 5650 5646 5643 5639 5634 5629 5627 5625 5624 5622 5619 5617 5615 5615 5617 5615 5616 5618 5618 5621 5622 5623 5624 5625 5625 5626 5627 5628 5629 5630 5631
5665 5663 5660 5658 5656 5652 5648 5645 5642 5639 5636 5632 5629 5628 5626 5623 5619 5616 5614 5612 5611 5611 5608 5606 5610 5611 5614 5615 5616 5617 5618 5618 5619 5619 5620 5622 5623 5624
5662 5660 5657 5654 5652 5649 5643 5639 5636 5635 5634 5630 5628 5625 5623 5620 5616 5610 5607 5603 5603 5604 5602 5599 5603 5604 5606 5607 5609 5609 5610 5610 5611 5612 5613 5615 5616 5617
5658 5656 5653 5650 5648 5644 5638 5634 5630 5630 5628 5625 5623 5620 5618 5616 5612 5607 5603 5598 5596 5596 5597 5593 5594 5593 5595 5600 5601 5601 5602 5603 5604 5605 5606 5608 5608 5608
5653 5651 5649 5647 5643 5639 5634 5630 5628 5625 5621 5617 5615 5613 5611 5609 5607 5604 5600 5595 5591 5590 5592 5587 5586 5584 5583 5588 5591 5592 5593 5595 5596 5598 5599 5601 5601 5601
5650 5648 5646 5642 5638 5634 5630 5627 5623 5618 5613 5609 5607 5605 5604 5603 5602 5599 5596 5592 5589 5588 5587 5582 5579 5578 5576 5578 5581 5585 5585 5586 5587 5589 5592 5594 5595 5596
5647 5644 5640 5636 5632 5628 5625 5621 5617 5611 5607 5603 5601 5601 5600 5598 5595 5592 5589 5586 5584 5582 5581 5578 5574 5574 5571 5571 5574 5576 5577 5580 5581 5582 5584 5586 5588 5589
5639 5636 5632 5628 5625 5621 5618 5615 5611 5606 5602 5598 5597 5596 5593 5590 5586 5584 5580 5578 5575 5576 5576 5573 5570 5567 5566 5567 5567 5570 5570 5571 5574 5575 5577 5580 5582 5584
5631 5626 5622 5618 5615 5612 5609 5606 5603 5599 5595 5592 5588 5586 5583 5580 5578 5575 5572 5569 5566 5567 5567 5567 5564 5562 5562 5561 5562 5564 5565 5566 5568 5569 5569 5572 5577 5579
5620 5616 5612 5609 5605 5603 5600 5597 5594 5591 5587 5584 5580 5576 5574 5571 5569 5566 5562 5559 5558 5558 5558 5557 5555 5553 5554 5557 5558 5559 5560 5561 5563 5564 5563 5564 5570 5574
5609 5606 5603 5600 5597 5593 5590 5587 5585 5582 5578 5574 5570 5567 5564 5562 5559 5557 5554 5552 5550 5550 5550 5549 5546 5543 5545 5550 5556 5555 5554 5557 5557 5558 5559 5560 5565 5570
5599 5596 5593 5590 5587 5584 5580 5577 5574 5571 5567 5563 5560 5558 5555 5552 5550 5548 5546 5544 5543 5542 5542 5542 5540 5539 5539 5543 5547 5551 5552 5551 5552 5553 5556 5557 5560 5565
5592 5588 5585 5581 5578 5575 5571 5567 5563 5560 5557 5554 5551 5548 5546 5543 5541 5539 5537 5536 5534 5534 5535 5536 5538 5537 5536 5535 5538 5545 5548 5549 5549 5549 5551 5551 5554 5557
5582 5579 5576 5572 5568 5564 5560 5557 5553 5550 5547 5544 5541 5539 5536 5534 5532 5530 5529 5528 5527 5528 5529 5531 5532 5530 5529 5530 5535 5539 5543 5546 5547 5547 5548 5549 5549 5551
5574 5570 5567 5562 5558 5554 5550 5546 5543 5540 5537 5534 5532 5529 5527 5525 5523 5522 5521 5521 5520 5521 5522 5523 5524 5524 5525 5527 5529 5533 5536 5539 5540 5542 5544 5546 5547 5550